Location: Kerb�bon
(47.7970°N, 3.3487°W)
Time: 12:53:41
(UTC+00:00)

Meteor 2-6 Rocket - Pass Details

Date: 12 May 2021
Orbit: 807 x 913 km, 81.3° (Epoch: 18 June)

Event Time Altitude Azimuth Distance (km) Brightness Sun altitude
Exits shadow 21:44:37 - 197° (SSW) 2,459 6.3 -16.3°
Reaches altitude 10° 21:44:47 10° 197° (SSW) 2,396 6.2 -16.3°
Maximum altitude 21:50:12 74° 283° (WNW) 862 4.3 -16.8°
Drops below altitude 10° 21:55:45 10° 8° (N) 2,465 7.3 -17.3°
Sets 21:58:13 0° 11° (N) 3,420 8.1 -17.6°
